COSMOS 2303

导读 | 星芒AI

COSMOS 2303 是俄罗斯于1997年发射的一颗军用通信卫星,主要用于军事通信和情报传输。该卫星属于俄罗斯的“宇宙”(COSMOS)系列,具有高度机密性,其具体功能和轨道参数未完全公开。由于其军事用途,COSMOS 2303 受到国际社会的密切关注。近年来,该卫星曾被报道可能与其他卫星发生近距离接触,引发对太空安全和潜在冲突的担忧。

基本信息
目录编号:
23445
目录名称:
COSMOS 2303
国际标识:
1994-086E
轨道中心:
EARTH
卫星名称:
COSMOS 2303
卫星全名:
--
卫星状态:
在轨 (已飞行11312 天)
发射日期:
1994-12-26 UTC
国别 :
俄罗斯(独联体) (CIS)
星等 :
--
轨道信息
数据来源 国际轨道数据
星历时间: 2025-12-15T03:43:47+0800
22小时前
查看轨道信息
半长轴: 7798.786km
偏心率: 0.0010474
轨道倾角: 82.574°
近地点辐角 261.804°
升交点赤经 103.350°
平近点角 217.334°
近地点: 1412.482km
远地点: 1428.82km
周期: 114.235分钟
每日圈数: 12.605564
详细信息
使用方式:
暂无
2D轨道图
3D轨道图
轨道高度分析图
轨道倾角分析图
轨道综合分析图
查看轨道综合分析图